Location: Unspecified
(42.9956°N, 0.0000°E)
Time: 20:36:17
(UTC+00:00)

SL-16 DEB - Visible Passes

Search period start: 04 April 2026 00:00
Search period end: 14 April 2026 00:00
Orbit: 819 x 946 km, 71.2° (Epoch: 19 March)

Date Brightness Start Highest point End Pass type
(mag) Time Alt. Az. Time Alt. Az. Time Alt. Az.
4 Apr ? 22:10:43 33° N 22:10:43 33° N 22:13:50 10° NNE visible
4 Apr ? 23:53:18 11° NW 23:54:20 12° NW 23:56:20 10° NNW visible
5 Apr ? 20:24:19 14° ENE 20:24:19 14° ENE 20:25:22 10° NE visible
5 Apr ? 22:06:54 44° NNW 22:06:54 44° NNW 22:11:04 10° NNE visible
5 Apr ? 23:51:22 10° NW 23:51:50 10° NW 23:52:17 10° NW visible
6 Apr ? 20:20:08 22° ENE 20:20:08 22° ENE 20:22:55 10° NE visible
6 Apr ? 22:02:40 45° WNW 22:02:55 45° WNW 22:08:16 10° NNE visible
7 Apr ? 20:15:07 32° ESE 20:15:29 32° ESE 20:20:23 10° NE visible
7 Apr ? 21:57:33 24° WSW 22:00:15 38° WNW 22:05:28 10° N visible
8 Apr ? 20:07:28 10° S 20:12:41 38° ESE 20:17:49 10° NE visible
8 Apr ? 21:52:31 10° WSW 21:57:37 33° NW 22:02:37 10° N visible
9 Apr ? 20:04:30 10° S 20:09:55 45° ESE 20:15:13 10° NE visible
9 Apr ? 21:50:07 10° WSW 21:54:59 29° NW 21:59:46 10° N visible
10 Apr ? 20:01:36 10° S 20:07:09 54° ESE 20:12:34 10° NNE visible
10 Apr ? 21:47:46 10° WSW 21:52:21 25° NW 21:56:53 10° N visible
11 Apr ? 19:58:46 10° S 20:04:23 64° ESE 20:09:54 10° NNE visible
11 Apr ? 21:45:30 10° W 21:49:45 21° NW 21:53:58 10° N visible
12 Apr ? 19:55:58 10° SSW 20:01:39 76° ESE 20:07:12 10° NNE visible
12 Apr ? 21:43:17 10° W 21:47:10 19° NW 21:51:00 10° N visible
13 Apr ? 19:53:13 10° SSW 19:58:54 89° ESE 20:04:29 10° NNE visible
13 Apr ? 21:41:10 10° W 21:44:35 16° NW 21:47:59 10° N visible
